Flag for Norway Weather past 2 weeks in Tananger, Norway

Now
48 °F

Passing clouds.


Feels Like: 41 °F
Forecast: 43 / 47 °F
Wind: 20 mph from West

Location: Stavanger / Sola

Current Time: Dec 21, 2014 at 7:09:08 PM

Latest Report: Dec 21, 2014 at 6:20 PM


Visibility: 3 mi

Pressure: 29.47 "Hg

Humidity: 94%

Dew point: 46 °F

Location of TanangerLocation

Historic Weather in Tananger — Graph

°F

Tananger temperature yesterday

Maximum temperature yesterday: 43 °F (at 12:20 AM)
Minimum temperature yesterday: 37 °F (at 9:20 AM)
Average temperature yesterday: 40 °F

Past Weeks' High & Low Weather Summary

 TemperatureHumidityPressure
High50 °F (Dec 7, 2:50 AM)100% (Dec 6, 9:20 PM)30.01 "Hg (Dec 6, 9:20 PM)
Low34 °F (Dec 9, 5:50 AM)52% (Dec 15, 6:20 PM)28.97 "Hg (Dec 11, 2:20 PM)
Average42 °F80%29.38 "Hg
* Reported Dec 6 5:20 PM — Dec 21 5:50 PM, Tananger, Weather by CustomWeather, © 2014

Note: Actual official high and low records may vary slightly from our data, if they occured in-between our weather recording intervals... More about our weather records

Advertising

Tananger weather history for previous 24 hours

 ConditionsComfort  
Time TempWeatherWind HumidityBarometerVisibility
5:50 PM
Dec 21
48 °FRain. Partly cloudy.21 mph94%29.47 "Hg4 mi
5:20 PM48 °FPassing clouds.20 mph94%29.47 "Hg4 mi
4:50 PM48 °FPartly cloudy.20 mph94%29.50 "Hg4 mi
4:20 PM48 °FPartly cloudy.16 mph94%29.50 "Hg2 mi
3:50 PM48 °FRain. Overcast.15 mph94%29.53 "Hg3 mi
3:20 PM46 °FLight rain. Partly sunny.14 mph100%29.56 "Hg4 mi
2:50 PM46 °FLight rain. Partly sunny.13 mph93%29.56 "Hg5 mi
2:20 PM46 °FLight rain. Partly sunny.16 mph100%29.59 "Hg5 mi
1:50 PM45 °FDrizzle. Broken clouds.9 mph93%29.62 "Hg5 mi
1:20 PM45 °FDrizzle. Broken clouds.9 mph93%29.62 "Hg6 mi
12:50 PM45 °FDrizzle. Broken clouds.9 mph93%29.65 "Hg6 mi
12:20 PM45 °FDrizzle. Broken clouds.12 mph93%29.68 "Hg6 mi
11:50 AM43 °FDrizzle. Partly sunny.6 mph93%29.71 "Hg5 mi
11:20 AM43 °FDrizzle. Partly sunny.8 mph93%29.71 "Hg4 mi
10:50 AM43 °FDrizzle. Broken clouds.6 mph93%29.74 "Hg5 mi
10:20 AM43 °FDrizzle. Broken clouds.10 mph93%29.77 "Hg6 mi
9:50 AM45 °FDrizzle. Partly sunny.13 mph81%29.77 "Hg6 mi
9:20 AM41 °FPartly cloudy.6 mph93%29.80 "HgN/A
8:50 AM39 °FPartly cloudy.7 mph93%29.80 "HgN/A
8:20 AM39 °FPassing clouds.6 mph87%29.83 "Hg6 mi
7:50 AM39 °FPassing clouds.6 mph87%29.83 "HgN/A
7:20 AM37 °FPartly cloudy.5 mph93%29.86 "HgN/A
6:50 AM37 °FPartly cloudy.5 mph93%29.86 "HgN/A
6:20 AM37 °FPassing clouds.No wind93%29.89 "HgN/A
5:50 AM37 °FPassing clouds.2 mph93%29.89 "HgN/A
4:50 AM37 °FPassing clouds.2 mph93%29.92 "HgN/A
3:50 AM37 °FLight rain. Passing clouds.1 mph93%29.92 "HgN/A
2:50 AM39 °FPartly cloudy.7 mph87%29.92 "HgN/A
1:50 AM41 °FPassing clouds.15 mph81%29.92 "HgN/A
12:50 AM41 °FPassing clouds.7 mph81%29.92 "HgN/A
12:20 AM41 °FPassing clouds.12 mph81%29.92 "HgN/A
11:50 PM
Dec 20
41 °FPassing clouds.15 mph81%29.89 "HgN/A
11:20 PM41 °FPassing clouds.12 mph81%29.89 "HgN/A
10:50 PM39 °FPassing clouds.6 mph87%29.86 "HgN/A
10:20 PM37 °FPassing clouds.3 mph93%29.86 "HgN/A
9:50 PM39 °FPassing clouds.8 mph87%29.83 "HgN/A
9:20 PM39 °FPassing clouds.6 mph87%29.83 "HgN/A
8:50 PM41 °FScattered showers. Passing clouds.13 mph81%29.80 "HgN/A
8:20 PM41 °FPassing clouds.7 mph81%29.80 "HgN/A
7:50 PM41 °FPassing clouds.10 mph81%29.77 "HgN/A
7:20 PM41 °FPassing clouds.8 mph81%29.74 "HgN/A
Weather by CustomWeather, © 2014

See weather overviewHow to use our weather pages